Location: Arrien
(43.3167°N, 0.1500°W)
Time: 23:16:43
(UTC+00:00)

CSL-04 Debris - Pass Details

Date: 15 October 2021
Orbit: 827 x 847 km, 98.9° (Epoch: 04 December)

Event Time Altitude Azimuth Distance (km) Brightness Sun altitude
Exits shadow 19:24:27 29° 166° (SSE) 1,461 5.2 -23.8°
Maximum altitude 19:27:17 88° 256° (WSW) 835 4.1 -24.3°
Drops below altitude 10° 19:32:43 10° 345° (NNW) 2,445 6.9 -25.3°
Sets 19:35:05 0° 346° (NNW) 3,385 7.7 -25.7°
